Regional Weather Roundup
Issued by NWS Little Rock, AR

Home | Current Version | Previous Version | Text Only | Print | Product List | Glossary On
Versions: 1 2 3 4 5 6 7 8 9 10 11 12 13 14 15 16 17 18 19 20 21 22 23 24 25 26 27 28 29 30 31 32 33 34 35 36 37 38 39 40 41 42 43 44 45 46 47 48 49 50
000
ASUS44 KLZK 201605
RWRLZK

WEATHER ROUNDUP FOR ARKANSAS
NATIONAL WEATHER SERVICE LITTLE ROCK AR
1100 AM CDT WED SEP 20 2017

NOTE: "FAIR" INDICATES FEW OR NO CLOUDS BELOW 12,000 FEET WITH NO
SIGNIFICANT WEATHER AND/OR OBSTRUCTIONS TO VISIBILITY.

ARZ001-003-010-029-201700-
NORTHWEST ARKANSAS

CITY           SKY/WX    TMP DP  RH WIND       PRES   REMARKS
FAYETTEVILLE   MOSUNNY   83  75  77 S17       29.93S HX  90
FORT SMITH     SUNNY     88  72  58 S13       29.90F HX  94
HARRISON       MOSUNNY   88  70  55 SW7       29.95S HX  93
BENTONVILLE    PTSUNNY   84  73  69 S9G20     29.95R HX  90
ROGERS         MOSUNNY   85  73  67 S16G23    29.94R HX  91
SILOAM SPGS    PTSUNNY   85  73  67 S17       29.92S HX  91
HIGHFILL       PTSUNNY   83  73  72 S13       29.93R HX  89
SPRINGDALE     MOSUNNY   82  73  74 S13G22    29.95R HX  88
$$

ARZ004-005-016-201700-
NORTH CENTRAL ARKANSAS

CITY           SKY/WX    TMP DP  RH WIND       PRES   REMARKS
BATESVILLE     SUNNY    N/A N/A N/A SW9       29.97S
FLIPPIN        SUNNY     86  73  65 VRB7      29.94S HX  93
MTN HOME       MOSUNNY   83  73  72 VRB5      29.94S HX  89
$$

ARZ040-041-201700-
WEST CENTRAL ARKANSAS

CITY           SKY/WX    TMP DP  RH WIND       PRES   REMARKS
MENA           MOSUNNY   86  73  66 S6        29.97F HX  93
MOUNT IDA      MOSUNNY   84  69  60 SW8       29.95S HX  88
$$

ARZ009-017-025-026-028-201700-
NORTHEAST ARKANSAS

CITY           SKY/WX    TMP DP  RH WIND       PRES   REMARKS
JONESBORO      SUNNY     86  77  74 SW13      29.98S HX  97
NEWPORT        SUNNY     85  74  69 SW16G22   29.97S HX  92
BLYTHEVILLE    SUNNY     86  76  71 SW8       30.00S HX  96
NW BLYTHEVILLE MOSUNNY   88  73  62 S8G17     29.99S HX  96
$$

ARZ022-023-033-042-044-201700-
CENTRAL ARKANSAS

CITY           SKY/WX    TMP DP  RH WIND       PRES   REMARKS
LITTLE ROCK    MOSUNNY   82  75  79 SW9       29.97F HX  89
N LITTLE ROCK    N/A     82  74  78 SW8       29.97F HX  88
JACKSONVILLE   SUNNY     85  74  70 SW12      29.96F HX  93
CONWAY           N/A     86  75  70 S13       29.94S HX  95
SEARCY         SUNNY     87  75  67 S9        29.98F HX  96
HOT SPRINGS    MOSUNNY   85  73  67 SW10      29.97S HX  91
RUSSELLVILLE   MOSUNNY   86  74  67 SW8       29.93F HX  94
CLINTON        FAIR      86  75  70 S7G14     29.95S HAZE    HX  95
$$

ARZ036-201700-
EAST ARKANSAS

CITY           SKY/WX    TMP DP  RH WIND       PRES   REMARKS
WEST MEMPHIS   SUNNY     86  75  69 SW12G17   29.99S HX  95
$$

ARZ050-053-066-070-073-201700-
SOUTHWEST ARKANSAS

CITY           SKY/WX    TMP DP  RH WIND       PRES   REMARKS
ARKADELPHIA    PTSUNNY   84  76  76 SW6       29.98S HX  93
CAMDEN         PTSUNNY   88  73  62 S10       29.98F HX  96
TEXARKANA      PTSUNNY   83  74  74 S12G21    29.97S HX  89
EL DORADO      CLOUDY    82  74  76 S12       30.00S HX  88
DE QUEEN       MOSUNNY   84  75  74 SW7       29.94S HX  92
$$

ARZ056-057-069-201700-
SOUTHEAST ARKANSAS

CITY           SKY/WX    TMP DP  RH WIND       PRES   REMARKS
PINE BLUFF     SUNNY     83  73  72 SW9       29.99S HX  89
STUTTGART      SUNNY     86  73  65 SW10      29.99S HX  93
MONTICELLO     MOSUNNY   82  73  74 W9        30.01S HX  87

$$





USA.gov is the U.S. government's official web portal to all federal, state and local government web resources and services.